| time (UTC) | temp C | wind direction | speed KPH | gust KPH | rain 1hr cm | rain 24hr cm | rain mn cm | humidity % | barometer mb |
| 20260508030017 | 12 | 0 | 8.0 | 9.7 | 0.00 | 0.03 | 0.03 | 72 | 991.5 |
| 20260508023037 | 12 | 0 | 8.0 | 11.3 | 0.00 | 0.03 | 0.03 | 71 | 991.4 |
| 20260508020017 | 13 | 0 | 6.4 | 9.7 | 0.00 | 0.03 | 0.03 | 68 | 991.1 |
| 20260508013017 | 13 | 0 | 6.4 | 11.3 | 0.00 | 0.03 | 0.03 | 67 | 990.9 |
| 20260508010017 | 13 | 0 | 4.8 | 8.0 | 0.03 | 0.03 | 0.03 | 68 | 990.8 |
| 20260508003017 | 15 | 0 | 3.2 | 11.3 | 0.03 | 0.03 | 0.03 | 64 | 990.7 |
| 20260508000017 | 16 | 0 | 1.6 | 6.4 | 0.00 | 0.00 | 0.00 | 56 | 991.0 |
| 20260507233037 | 16 | 0 | 4.8 | 8.0 | 0.00 | 0.00 | 0.00 | 57 | 990.8 |
| 20260507230017 | 17 | 0 | 3.2 | 6.4 | 0.00 | 0.00 | 0.00 | 52 | 991.0 |
| 20260507223017 | 16 | 0 | 17.7 | 37.0 | 0.00 | 0.00 | 0.00 | 58 | 991.3 |
| 20260507220017 | 18 | 0 | 8.0 | 20.9 | 0.00 | 0.00 | 0.00 | 47 | 991.1 |
| 20260507213017 | 17 | 0 | 6.4 | 19.3 | 0.00 | 0.00 | 0.00 | 57 | 991.2 |
| 20260507210037 | 14 | 0 | 25.7 | 69.2 | 0.00 | 0.00 | 0.00 | 65 | 991.6 |
| 20260507203017 | 17 | 0 | 17.7 | 43.5 | 0.00 | 0.00 | 0.00 | 44 | 991.6 |
| 20260507200017 | 18 | 0 | 11.3 | 30.6 | 0.00 | 0.00 | 0.00 | 43 | 991.9 |
| 20260507193017 | 18 | 0 | 12.9 | 30.6 | 0.00 | 0.00 | 0.00 | 43 | 992.4 |
| 20260507190017 | 18 | 0 | 12.9 | 35.4 | 0.00 | 0.00 | 0.00 | 45 | 992.7 |
| 20260507183017 | 17 | 0 | 9.7 | 25.7 | 0.00 | 0.00 | 0.00 | 47 | 993.0 |
| 20260507180017 | 17 | 0 | 11.3 | 27.4 | 0.00 | 0.00 | 0.00 | 48 | 993.4 |
| 20260507173018 | 16 | 0 | 16.1 | 35.4 | 0.00 | 0.00 | 0.00 | 50 | 993.9 |
| 20260507170017 | 15 | 0 | 17.7 | 38.6 | 0.00 | 0.00 | 0.00 | 52 | 994.3 |
| 20260507163017 | 15 | 0 | 12.9 | 43.5 | 0.00 | 0.00 | 0.00 | 53 | 994.6 |
| 20260507160017 | 14 | 0 | 16.1 | 33.8 | 0.00 | 0.00 | 0.00 | 54 | 994.8 |
| 20260507153017 | 13 | 0 | 16.1 | 33.8 | 0.00 | 0.00 | 0.00 | 55 | 994.9 |
| 20260507150018 | 13 | 0 | 16.1 | 37.0 | 0.00 | 0.00 | 0.00 | 55 | 994.9 |
| 20260507143037 | 13 | 0 | 27.4 | 37.0 | 0.00 | 0.00 | 0.00 | 55 | 994.5 |
| 20260507140017 | 11 | 0 | 20.9 | 33.8 | 0.00 | 0.00 | 0.00 | 56 | 994.5 |
| 20260507133017 | 10 | 0 | 16.1 | 32.2 | 0.00 | 0.00 | 0.00 | 56 | 994.8 |
| 20260507130017 | 10 | 0 | 17.7 | 33.8 | 0.00 | 0.00 | 0.00 | 57 | 995.4 |
| 20260507123017 | 7 | 0 | 9.7 | 16.1 | 0.00 | 0.00 | 0.00 | 65 | 995.4 |
| 20260507120017 | 6 | 0 | 9.7 | 14.5 | 0.00 | 0.00 | 0.00 | 69 | 995.4 |
| 20260507113017 | 5 | 0 | 9.7 | 14.5 | 0.00 | 0.00 | 0.00 | 69 | 995.6 |
| 20260507110017 | 5 | 0 | 11.3 | 16.1 | 0.00 | 0.00 | 0.00 | 70 | 995.4 |
| 20260507103017 | 4 | 0 | 11.3 | 16.1 | 0.00 | 0.00 | 0.00 | 71 | 995.6 |
| 20260507100017 | 5 | 0 | 9.7 | 14.5 | 0.00 | 0.00 | 0.00 | 68 | 995.6 |
| 20260507093017 | 5 | 0 | 8.0 | 11.3 | 0.00 | 0.00 | 0.00 | 64 | 995.8 |
| 20260507090017 | 6 | 0 | 8.0 | 11.3 | 0.00 | 0.00 | 0.00 | 63 | 996.1 |
| 20260507083019 | 6 | 0 | 6.4 | 9.7 | 0.00 | 0.00 | 0.00 | 61 | 996.3 |
| 20260507080017 | 6 | 0 | 6.4 | 8.0 | 0.00 | 0.00 | 0.00 | 60 | 996.3 |
| 20260507073017 | 6 | 0 | 6.4 | 9.7 | 0.00 | 0.00 | 0.00 | 58 | 996.5 |
| 20260507070017 | 7 | 0 | 8.0 | 11.3 | 0.00 | 0.00 | 0.00 | 57 | 996.5 |
| 20260507063019 | 6 | 0 | 8.0 | 9.7 | 0.00 | 0.00 | 0.00 | 57 | 997.0 |
| 20260507060017 | 7 | 0 | 6.4 | 9.7 | 0.00 | 0.00 | 0.00 | 53 | 997.2 |
| 20260507053017 | 8 | 0 | 4.8 | 8.0 | 0.00 | 0.00 | 0.00 | 50 | 997.4 |
| 20260507050018 | 8 | 0 | 3.2 | 4.8 | 0.00 | 0.00 | 0.00 | 47 | 997.4 |
| 20260507043017 | 8 | 0 | 3.2 | 3.2 | 0.00 | 0.00 | 0.00 | 49 | 997.3 |
| 20260507040017 | 8 | 0 | 3.2 | 4.8 | 0.00 | 0.00 | 0.00 | 48 | 997.3 |
| 20260507033017 | 9 | 0 | 1.6 | 4.8 | 0.00 | 0.00 | 0.00 | 47 | 997.4 |